MHLMMHTG

Guest
Details From MHLM - La Mesa Intl
To MHTG - Tegucigalpa Toncontin Intl
Flight Number -
Tags generated
Created
Modified
Stats Distance 93 nm / 172 km
Max Altitude 11,400 ft / 3,475 m
Waypoints 4
Social Downloads 10
Likes 0
Share VATSIM

Download

Looking for another format? Having issues loading an existing format? Contact us
Advertisement - Login to hide

Notes

Basic altitude profile: - Ascent Rate: 2500ft/min - Ascent Speed: 250kts - Cruise Altitude: 35000ft - Cruise Speed: 420kts - Descent Rate: 1500ft/min - Descent Speed: 250kts Options: - Use NATs: yes - Use PACOTS: yes - Use low airways: yes - Use high airways: yes

Route

MHLM ARITA B753 ROMBO MHTG

ID Type Via Altitude Latitude Longitude Leg Dist Tot Dist Heading (true) Name
O MHLM APT - 0 ft / 0 m 15.45196˚ -87.92415˚ - 0 nm - La Mesa Intl
ARITA FIX - 11,400 ft / 3,475 m 14.86333˚ -87.62167˚ 39 nm 39 nm 154° / 154° -
ROMBO FIX B753 (AWY-LO) 10,000 ft / 3,048 m 14.40833˚ -87.40667˚ 30 nm 69 nm 155° / 155° -
O MHTG APT - 0 ft / 0 m 14.06088˚ -87.21720˚ 23 nm 93 nm 152° / 152° Tegucigalpa Toncontin Intl

Altitude Profile

Advertisement - Login to hide

MHLM

Details ICAO MHLM (SAP)
Name La Mesa Intl
Region Honduras
Timezone America/Tegucigalpa (UTC-6.0)
Stats Elevation 91 ft / 28 m (AMSL)
Location 15.451957° -87.924153°
Runways 1
Magnetic Variation 0.535° W

METAR

MHLM 250500Z 18005KT 9999 FEW026 SCT080 29/26 Q1011 A2986 NOSIG

Decode

TAF

Not found

Departure Runways

ID Width Length Bearing (true) Bearing (mag) Surface Threshold Offset Overrun Length
04 148 ft / 45 m 9,232 ft / 2,814 m 40.08° 40.61° Concrete 656 ft / 200 m 262 ft / 80 m
22 148 ft / 45 m 9,232 ft / 2,814 m 220.08° 220.61° Concrete 0 ft / 0 m 492 ft / 150 m

MHTG

Details ICAO MHTG (TGU)
Name Tegucigalpa Toncontin Intl
Region Honduras
Timezone America/Tegucigalpa (UTC-6.0)
Stats Elevation 3,294 ft / 1,004 m (AMSL)
Location 14.060883° -87.217197°
Runways 1
Magnetic Variation 0.722° W

METAR

MHTG 250500Z 00000KT 4000 TSRA FEW008 BKN026 FEW028CB OVC070 20/20 Q1019 A2909 BECMG 6000 TSRA NOSIG

Decode

TAF

Not found

Destination Runways

ID Width Length Bearing (true) Bearing (mag) Surface Threshold Offset Overrun Length
02 148 ft / 45 m 6,140 ft / 1,872 m 18.87° 19.59° Asphalt 670 ft / 204 m 100 ft / 30 m
20 148 ft / 45 m 6,140 ft / 1,872 m 198.87° 199.59° Asphalt 0 ft / 0 m 200 ft / 61 m

Popular Alternatives